Oak Ridge, TN

8:36 PM EDT on April 28, 2017 (GMT -0400)
Oak Ridge

Weather History for KOQT - May, 2013

Change the Weather History Date:

Tuesday, May 14, 2013

  Actual Average (KTYS) Record (KTYS)
Temperature  
Mean Temperature 60 °F -  
Max Temperature 79 °F 78 °F 91 °F (1916)
Min Temperature 41 °F 54 °F 39 °F (1917)
Degree Days  
Heating Degree Days 6    
Growing Degree Days 10 (Base 50)    
Moisture  
Dew Point 45 °F    
Average Humidity 59    
Maximum Humidity 93    
Minimum Humidity 36    
Precipitation  
Precipitation 0.00 in - - ()
Sea Level Pressure  
Sea Level Pressure 30.16 in    
Wind  
Wind Speed 2 mph (SSW)    
Max Wind Speed 12 mph    
Max Gust Speed 21 mph    
Visibility 10 miles    
Events      
Averages and records for this station are not official NWS values.
T = Trace of Precipitation, MM = Missing Value Source: NWS Daily Summary

Daily Weather History Graph

Daily Weather History Graph

Search for Another Location

Airport or City:

Trip Planner

Search our weather history database for the weather conditions in past years. The results will help you decide how hot, cold, wet, or windy it might be!

Date:

Astronomy

May. 14, 2013 Rise Set
Actual Time 6:31 AM EDT 8:35 PM EDT
Civil Twilight 6:03 AM EDT 9:03 PM EDT
Nautical Twilight 5:28 AM EDT 9:38 PM EDT
Astronomical Twilight 4:51 AM EDT 10:16 PM EDT
Moon 10:10 AM EDT (5/14) No Moon Set
Length of Visible Light 15h 00m
Length of Day
14h 03m
Waxing Crescent, 19% of the Moon is Illuminated
May 14
Waxing Crescent
May 18
First Quarter
May 25
Full
May 31
Last Quarter
Jun 8
New

Hourly Weather History & Observations

Time (EDT) Temp. Dew Point Humidity Pressure Visibility Wind Dir Wind Speed Gust Speed Precip Events Conditions
12:53 AM 46.0 °F 39.0 °F 76% 30.23 in 10.0 mi Calm Calm - N/A   Clear
1:53 AM 45.0 °F 39.9 °F 82% 30.22 in 10.0 mi Calm Calm - N/A   Clear
2:53 AM 44.1 °F 39.0 °F 82% 30.22 in 10.0 mi Calm Calm - N/A   Clear
3:53 AM 42.1 °F 39.0 °F 89% 30.22 in 10.0 mi Calm Calm - N/A   Clear
4:53 AM 41.0 °F 37.9 °F 89% 30.22 in 10.0 mi Calm Calm - N/A   Clear
5:53 AM 41.0 °F 39.0 °F 93% 30.24 in 10.0 mi Calm Calm - N/A   Clear
6:53 AM 41.0 °F 39.0 °F 93% 30.25 in 10.0 mi Calm Calm - N/A   Scattered Clouds
7:53 AM 46.0 °F 41.0 °F 83% 30.25 in 10.0 mi Calm Calm - N/A   Clear
8:53 AM 52.0 °F 42.1 °F 69% 30.25 in 10.0 mi Calm Calm - N/A   Clear
9:53 AM 57.9 °F 41.0 °F 53% 30.25 in 10.0 mi Calm Calm - N/A   Partly Cloudy
10:53 AM 64.0 °F 37.9 °F 38% 30.23 in 10.0 mi Variable 4.6 mph - N/A   Clear
11:53 AM 68.0 °F 39.9 °F 36% 30.22 in 10.0 mi South 4.6 mph - N/A   Clear
12:53 PM 69.1 °F 41.0 °F 36% 30.20 in 10.0 mi SW 6.9 mph - N/A   Clear
1:53 PM 73.0 °F 45.0 °F 37% 30.16 in 10.0 mi SSW 11.5 mph 20.7 mph N/A   Clear
2:53 PM 75.9 °F 46.9 °F 36% 30.12 in 10.0 mi South 8.1 mph 16.1 mph N/A   Clear
3:53 PM 77.0 °F 48.0 °F 36% 30.10 in 10.0 mi Variable 6.9 mph 17.3 mph N/A   Clear
4:53 PM 78.1 °F 50.0 °F 37% 30.07 in 10.0 mi SSW 9.2 mph 16.1 mph N/A   Clear
5:53 PM 78.1 °F 51.1 °F 39% 30.05 in 10.0 mi Variable 5.8 mph - N/A   Clear
6:53 PM 78.1 °F 53.1 °F 42% 30.04 in 10.0 mi SSW 5.8 mph - N/A   Clear
7:53 PM 75.9 °F 54.0 °F 46% 30.04 in 10.0 mi South 10.4 mph - N/A   Clear
8:53 PM 73.9 °F 54.0 °F 50% 30.03 in 10.0 mi Variable 5.8 mph - N/A   Clear
9:53 PM 72.0 °F 55.0 °F 55% 30.05 in 10.0 mi Variable 4.6 mph - N/A   Clear
10:53 PM 70.0 °F 55.0 °F 59% 30.05 in 10.0 mi WSW 3.5 mph - N/A   Clear
11:53 PM 68.0 °F 55.0 °F 63% 30.05 in 10.0 mi Calm Calm - N/A   Clear